User: anonymous   Login
Location: Dappach
(48.9767°N, 9.6998°E)
Time: 04:21:03
(UTC+00:00)
Language:

Cosmos 1300 Rocket - Orbit

View from above orbital plane
View from above orbital plane
View from above satellite
View from above satellite

Ground track
Ground track

The orbit data is extracted from the following two-line orbital elements,

1 12786U 81082B   24204.02770933  .00001075  00000-0  12006-3 0  9991
2 12786  82.4867  43.8552 0016602 340.6665  19.3919 14.86003243298364
Epoch (UTC): 22 July 2024 00:39:54
Eccentricity: 0.0016602
inclination: 82.4867°
perigee height: 599 km
apogee height: 622 km
right ascension of ascending node: 43.8552°
argument of perigee: 340.6665°
revolutions per day: 14.86003243
mean anomaly at epoch: 19.3919°
orbit number at epoch: 29836

The dashed part of the orbit path shows where the satellite is in the earth's shadow,  

DLR